Regional Weather Roundup
Issued by NWS

Home | Current Version | Previous Version | Graphics & Text | Print | Product List | Glossary Off
Versions: 1 2 3 4 5 6 7 8 9 10 11 12 13 14 15 16 17 18 19 20 21 22 23 24 25 26 27 28 29 30 31 32 33 34 35 36 37 38 39 40 41 42 43 44 45 46 47 48 49 50

000
ASUS43 KMPX 182101
RWRMN
WEATHER ROUNDUP FOR MINNESOTA
NATIONAL WEATHER SERVICE TWIN CITIES/CHANHASSEN MN
300 PM CST WED JAN 18 2017


NOTE: "FAIR" INDICATES FEW OR NO CLOUDS BELOW 12,000 FEET WITH NO
SIGNIFICANT WEATHER AND/OR OBSTRUCTIONS TO VISIBILITY. N/A MEANS
CURRENT SKY AND/OR WEATHER CONDITIONS ARE NOT AVAILABLE.

MNZ060>063-068>070-182200-
   Twin Cities Metro

CITY           SKY/WX    TMP DP  RH WIND       PRES   REMARKS
TWIN CITIES    SUNNY     41  30  65 S9        29.86S
ST PAUL        SUNNY     40  32  73 S10       29.87F
CRYSTAL        SUNNY     40  29  64 S9        29.84S
BLAINE         SUNNY     43  32  65 SW9       29.84F
LAKEVILLE      SUNNY     37  32  81 S7        29.86S
EDEN PRAIRIE   SUNNY     39  31  72 S14       29.85S
SOUTH ST PAUL  SUNNY     40  32  71 S7        29.87S
LAKE ELMO      FAIR      37  32  81 S12       29.87S
$$
MNZ001>005-007-008-013>017-022>024-027-028-182200-
   Northwest Minnesota

CITY           SKY/WX    TMP DP  RH WIND       PRES   REMARKS
BEMIDJI        CLOUDY    39  28  63 SE5       29.71S
HALLOCK        CLOUDY    27  23  86 S13       29.65S WCI  16
ROSEAU         CLOUDY    34  27  75 S7        29.68S WCI  28
WARROAD        CLOUDY    34  25  69 CALM      29.69S
THIEF RVR FALL CLOUDY    34  24  67 S7        29.69F WCI  28
CROOKSTON      CLOUDY    28  23  80 S15       29.70S WCI  17
FOSSTON        CLOUDY    36  25  64 S9        29.71S
DETROIT LAKES  SUNNY     39  27  60 S8        29.73S
MOORHEAD       SUNNY     32  25  74 S8        29.73S WCI  25
PARK RAPIDS    SUNNY     38  25  59 S6        29.72S
MAHNOMEN       FAIR      36  27  67 S8        29.71S
$$
MNZ006-009>011-018-025>026-182200-
   North Central Minnesota

CITY           SKY/WX    TMP DP  RH WIND       PRES   REMARKS
BAUDETTE       CLOUDY    36  24  62 S6        29.68F
FLAG ISLAND    CLOUDY    27  21  80 S6        29.68S WCI  20
INTL FALLS     CLOUDY    37  24  59 S3        29.71F
WASKISH        CLOUDY    39  27  60 CALM      29.70S
BIG FORK       CLOUDY    41  27  56 SE3       29.73S
LONGVILLE      CLOUDY    45  27  49 S5        29.73F
GRAND RAPIDS   CLOUDY    43  26  51 S8        29.76S
CRANE LAKE     SUNNY     37  25  60 S3        29.75F
ORR            CLOUDY    39  21  48 CALM      29.71S
COOK           CLOUDY    39  25  56 CALM      29.75S
WALKER         FAIR      43  26  50 S6        29.72S
$$
MNZ012-019>021-037-182200-
   Northeast Minnesota

CITY           SKY/WX    TMP DP  RH WIND       PRES   REMARKS
DULUTH         SUNNY     39  27  62 SW8       29.77R
ELY            CLOUDY    39  25  56 CALM      29.74R
HIBBING        CLOUDY    38  24  57 N3        29.75S
EVELETH        CLOUDY    40  23  50 SW5       29.76S
DULUTH HARBOR  SUNNY     39  28  65 CALM      29.80S
TWO HARBORS    SUNNY     43  30  61 S5        29.75S
SILVER BAY     SUNNY     43  28  56 S3        29.74R
GRAND MARAIS     N/A     38  33  82 W16       29.77R
G MARAIS ARPRT SUNNY     39  25  56 W3        29.73R
$$
MNZ029>031-032-039>041-046>048-054>057-064-182200-
   West Central Minnesota

CITY           SKY/WX    TMP DP  RH WIND       PRES   REMARKS
FERGUS FALLS   SUNNY     36  27  69 SE9       29.78S
WHEATON        SUNNY     45  34  65 S7        29.76R
MORRIS         SUNNY     36  28  75 SE12      29.75F
ALEXANDRIA     SUNNY     37  27  67 S10       29.77S
ELBOW LAKE     FAIR      34  28  78 E13       29.75S HAZE    WCI  25
WADENA         SUNNY     39  27  60 S6        29.74S
GLENWOOD       SUNNY     36  28  75 S8        29.79R
APPLETON       SUNNY     39  28  65 S7        29.77F
ORTONVILLE     MOSUNNY   43  27  52 CALM      29.76S
MADISON        SUNNY     41  30  65 S7        29.77S
WILLMAR        FAIR      37  32  81 CALM      29.82S
$$
MNZ033>034-036-042>043-049>051-058-059-182200-
   Central Minnesota

CITY           SKY/WX    TMP DP  RH WIND       PRES   REMARKS
ST CLOUD       SUNNY     37  29  72 S9        29.82S
SAUK CENTRE    FAIR      36  29  76 SE8       29.79F
PAYNESVILLE    SUNNY     37  29  74 S8        29.82R
AITKIN         SUNNY     43  23  45 S8        29.76S
PINE RIVER     SUNNY     39  27  60 SE9       29.78F
BRAINERD       SUNNY     37  25  61 S8        29.78R
STAPLES        SUNNY     37  25  60 S8        29.76S
LONG PRAIRIE   FAIR      37  28  70 SE5       29.78F
LITTLE FALLS   SUNNY     37  27  65 S7        29.80R
LITCHFIELD     SUNNY     39  32  75 CALM      29.83S
BUFFALO        SUNNY     38  30  72 S6        29.85S
MAPLE LAKE     SUNNY     39  32  75 S3        29.85R
HUTCHINSON     CLOUDY    39  33  81 S3        29.84S
$$
MNZ037-044-045-052-053-182200-
   East Central Minnesota

CITY           SKY/WX    TMP DP  RH WIND       PRES   REMARKS
PRINCETON      SUNNY     41  30  65 S7        29.83F
MORA           SUNNY     37  27  65 S9        29.83F
CAMBRIDGE      SUNNY     43  28  56 SW7       29.81F
RUSH CITY      SUNNY     41  28  60 S7        29.83S
MOOSE LAKE     SUNNY     39  27  60 SW7       29.79R
HINCKLEY       FAIR      39  30  70 S9        29.82S
CLOQUET        SUNNY     39  25  56 S8        29.77F
MCGREGOR       SUNNY     39  28  65 S6        29.78S
$$
MNZ071>073-080-081-089-090-097-098-182200-
   Southwest Minnesota

CITY           SKY/WX    TMP DP  RH WIND       PRES   REMARKS
MONTEVIDEO     SUNNY     43  30  61 SW8       29.80S
GRANITE FALLS  SUNNY     38  33  80 S9        29.81S
CANBY            N/A     43  28  55 SW10      29.78S
MARSHALL       SUNNY     41  30  65 SW6       29.79F
REDWOOD FALLS  SUNNY     39  32  76 S12       29.81F
OLIVIA         SUNNY     39  32  75 S7        29.81S
PIPESTONE      SUNNY     37  34  87 S9        29.80S
WINDOM         SUNNY     41  36  81 S8        29.82F
WORTHINGTON    SUNNY     40  35  83 SW13      29.82S
JACKSON        SUNNY     37  32  81 S13         N/A
TRACY          SUNNY     40  34  78 SW16      29.80F
SLAYTON        SUNNY     37  33  85 S13       29.81F
$$
MNZ065>067-074>077-082>085-091>093-182200-
   South Central Minnesota

CITY           SKY/WX    TMP DP  RH WIND       PRES   REMARKS
MANKATO        SUNNY     39  33  79 S9        29.87R
NEW ULM        SUNNY     37  34  87 S7        29.84S
ST JAMES       SUNNY     39  36  87 S10       29.86S
FAIRMONT       SUNNY     40  35  83 S10       29.85S
GLENCOE        SUNNY     39  35  86 CALM      29.84R
FARIBAULT      SUNNY     39  34  81 S8        29.88S
OWATONNA       SUNNY     37  30  75 S10       29.87F
WASECA         SUNNY     36  32  87 S12       29.89S
ALBERT LEA     SUNNY     39  34  81 S9        29.88S
$$
MNZ078>079-086>088-094>096-182200-
   Southeast Minnesota

CITY           SKY/WX    TMP DP  RH WIND       PRES   REMARKS
ROCHESTER      PTSUNNY   32  32 100 S14       29.89F FOG     WCI  22
RED WING       SUNNY     39  30  70 SW9       29.89F
STANTON        SUNNY     38  32  79 S7        29.86F
DODGE CENTER   SUNNY     34  30  86 S12       29.88S FOG     WCI  25
WINONA           N/A     37  32  81 CALM      29.95R
AUSTIN         SUNNY     36  30  80 S14       29.90R
PRESTON        SUNNY     32  30  92 S18       29.91S FOG     WCI  20
$$
ABBREVIATIONS USED IN REMARKS
   TC - TEMPERATURES IN CELSIUS
  WCI - WIND CHILL INDEX
   HX - HEAT INDEX
  VSB - VISIBILITY
$$




USA.gov is the U.S. government's official web portal to all federal, state and local government web resources and services.